Location: K�ln
(50.9455°N, 6.9544°E)
Time: 22:29:31
(UTC+01:00)

ISS - Visible Passes

Search period start: 25 February 2018 00:00
Search period end: 07 March 2018 00:00
Orbit: 403 x 406 km, 51.6° (Epoch: 26 February)

Date Brightness Start Highest point End Pass type
(mag) Time Alt. Az. Time Alt. Az. Time Alt. Az.
28 Feb -1.3 06:16:08 10° S 06:18:32 19° SE 06:20:56 10° E visible
01 Mar -0.9 05:25:10 10° SSE 05:26:31 12° SE 05:27:51 10° ESE visible
02 Mar -2.3 06:07:14 10° SW 06:10:13 33° SSE 06:13:13 10° E visible
03 Mar -1.8 05:17:00 18° S 05:18:06 22° SE 05:20:43 10° E visible
04 Mar -0.9 04:26:55 13° ESE 04:26:55 13° ESE 04:27:52 10° ESE visible
04 Mar -3.3 05:59:34 16° SW 06:01:58 55° SSE 06:05:12 10° E visible
05 Mar -2.9 05:09:24 36° S 05:09:44 38° SSE 05:12:49 10° E visible
06 Mar -1.1 04:19:09 17° ESE 04:19:09 17° ESE 04:20:20 10° E visible
06 Mar -3.8 05:51:47 22° WSW 05:53:45 82° SSE 05:57:02 10° ENE visible
